(111916) = 2003 WG27 = 2002 GE5 = 1993 SM10 = 1999 JC113

Discovered at Socorro on 2002-04-10 by LINEAR.

Orbit

Orbit type: Main Belt

Note: WebGL enabled browser required.

epoch2024-03-31.0
epoch JD2460400.5
perihelion date2022-07-31.58714
perihelion JD2459792.08714
argument of perihelion (°)314.45450
ascending node (°)349.94540
inclination (°)4.18596
eccentricity0.1882321
perihelion distance (AU)1.7804449
Tisserand w.r.t. Jupiter3.6
ΔV w.r.t. Earth (km/sec)8.3
semimajor axis (AU)2.1932931
mean anomaly (°)184.61085
mean daily motion (°/day)0.30343020
aphelion distance (AU)2.606
period (years)3.25
P-vector [x]0.56529800
P-vector [y]-0.73458196
P-vector [z]-0.37526993
Q-vector [x]0.82478832
Q-vector [y]0.49632337
Q-vector [z]0.27090099
absolute magnitude16.84
phase slope0.15
uncertainty0
referenceMPEC 2024-E179
observations used810
oppositions18
arc length (days)11130
first opposition used1993
last opposition used2024
residual rms (arc-secs)0.75
perturbers coarse indicatorM-v
perturbers precise indicator003Ek
first observation date used1993-09-22.0
last observation date used2024-03-13.0
computer nameMPCLINUX
JD of orbit computation2456670.657330
perihelion JD uncertainty (days)4.0894E-05
argument of perihelion uncertainty (°)5.9398E-05
ascending node uncertainty (°)5.8095E-05
inclination uncertainty (°)4.2494E-06
eccentricity uncertainty 3.4817E-08
perihelion distance uncertainty (AU)7.9734E-08
Minimum Orbit Intersection Distances (in AU)
for orbit epoch: 2460400.5, reference: E2024-GD4
Mercury1.33855
Venus1.05231
Earth0.76832
Mars0.37431
Jupiter2.62584
Saturn6.4895
Uranus15.9083
Neptune27.4962

Observations

820 total observations over interval: 1993 09 22.28229 – 2024 03 13.145795
These data are available for download (format description).

Date (UT) J2000 RA J2000 Dec Magn Location Ref
1993 09 22.28229 00 43 21.44 +07 09 21.4 18.6   809 – European Southern Observatory, La Silla MPC 23942
1993 09 22.30312 00 43 20.12 +07 09 18.2   809 – European Southern Observatory, La Silla MPC 23942
1993 09 22.32396 00 43 18.71 +07 09 14.3   809 – European Southern Observatory, La Silla MPC 23942
1993 09 24.26354 00 41 17.65 +07 03 36.2   809 – European Southern Observatory, La Silla MPC 23942
1993 09 24.28437 00 41 16.24 +07 03 32.5   809 – European Southern Observatory, La Silla MPC 23942
1993 09 24.30521 00 41 14.75 +07 03 28.5   809 – European Southern Observatory, La Silla MPC 23942
1999 05 13.30261 15 21 49.14 -26 18 14.1 18.5   704 – Lincoln Laboratory ETS, New Mexico MPS 5196
1999 05 13.31759 15 21 48.14 -26 18 14.0 18.7   704 – Lincoln Laboratory ETS, New Mexico MPS 5196
1999 05 13.34766 15 21 45.81 -26 18 09.3 18.7   704 – Lincoln Laboratory ETS, New Mexico MPS 5196
1999 05 13.36260 15 21 44.79 -26 18 06.3 19.0   704 – Lincoln Laboratory ETS, New Mexico MPS 5196
1999 05 18.24195 15 16 07.56 -26 07 42.9 19.1   704 – Lincoln Laboratory ETS, New Mexico MPS 5196
1999 05 18.25595 15 16 06.52 -26 07 39.6 19.5   704 – Lincoln Laboratory ETS, New Mexico MPS 5196
1999 05 18.26998 15 16 05.46 -26 07 37.3 18.7   704 – Lincoln Laboratory ETS, New Mexico MPS 5196
1999 05 18.28395 15 16 04.42 -26 07 34.7 18.7   704 – Lincoln Laboratory ETS, New Mexico MPS 5196
2002 04 04.32673 12 34 10.38 -06 44 02.9 19.1   644 – Palomar Mountain/NEAT MPS 55884
2002 04 04.33836 12 34 09.60 -06 43 59.8 19.2   644 – Palomar Mountain/NEAT MPS 55884
2002 04 04.35267 12 34 08.61 -06 43 55.7 19.4   644 – Palomar Mountain/NEAT MPS 55884
2002 04 05.22710 12 33 11.38 -06 39 45.5 19.1 R 699 – Lowell Observatory-LONEOS MPS 55884
2002 04 05.24379 12 33 10.23 -06 39 39.7   699 – Lowell Observatory-LONEOS MPS 55884
2002 04 05.26043 12 33 09.05 -06 39 35.6   699 – Lowell Observatory-LONEOS MPS 55884
2002 04 05.27725 12 33 07.98 -06 39 30.5   699 – Lowell Observatory-LONEOS MPS 55884
2002 04 10.24722 12 27 45.86 -06 15 30.8 19.1   704 – Lincoln Laboratory ETS, New Mexico MPS 55884
2002 04 10.25927 12 27 45.04 -06 15 27.3 19.6   704 – Lincoln Laboratory ETS, New Mexico MPS 55884
2002 04 10.27095 12 27 44.37 -06 15 24.7 19.5   704 – Lincoln Laboratory ETS, New Mexico MPS 55884
2002 04 10.28246 12 27 43.58 -06 15 20.9 19.2   704 – Lincoln Laboratory ETS, New Mexico MPS 55884
2002 04 10.29392 12 27 42.75 -06 15 17.2 19.7   704 – Lincoln Laboratory ETS, New Mexico MPS 55884
2002 04 12.29594 12 25 36.56 -06 05 38.8 19.1   704 – Lincoln Laboratory ETS, New Mexico MPS 55884
2002 04 12.31023 12 25 35.68 -06 05 34.0 20.1   704 – Lincoln Laboratory ETS, New Mexico MPS 55884
2002 04 12.32481 12 25 34.68 -06 05 30.7 19.4   704 – Lincoln Laboratory ETS, New Mexico MPS 55884
2002 04 12.34121 12 25 33.63 -06 05 25.4 19.5   704 – Lincoln Laboratory ETS, New Mexico MPS 55884
2002 04 14.20585 12 23 39.40 -05 56 33.3 19.6   704 – Lincoln Laboratory ETS, New Mexico MPS 55884
2002 04 14.21985 12 23 38.53 -05 56 29.2 19.4   704 – Lincoln Laboratory ETS, New Mexico MPS 55884
2002 04 14.23374 12 23 37.61 -05 56 25.6 19.4   704 – Lincoln Laboratory ETS, New Mexico MPS 55884
2002 04 14.24764 12 23 36.79 -05 56 21.5 19.8   704 – Lincoln Laboratory ETS, New Mexico MPS 55884
2002 04 14.26153 12 23 35.90 -05 56 17.6 19.8   704 – Lincoln Laboratory ETS, New Mexico MPS 55884
2002 04 14.27290 12 23 35.25 -05 56 14.5 19.0   704 – Lincoln Laboratory ETS, New Mexico MPS 55884
2002 04 14.28754 12 23 34.25 -05 56 10.8 19.3   704 – Lincoln Laboratory ETS, New Mexico MPS 55884
2002 04 14.30148 12 23 33.32 -05 56 08.2 19.2   704 – Lincoln Laboratory ETS, New Mexico MPS 55884
2002 04 14.31517 12 23 32.36 -05 56 03.0 19.6   704 – Lincoln Laboratory ETS, New Mexico MPS 55884
2002 04 14.32886 12 23 31.63 -05 55 59.7 19.1   704 – Lincoln Laboratory ETS, New Mexico MPS 55884
2002 04 15.14925 12 22 42.76 -05 52 09.4 19.8   644 – Palomar Mountain/NEAT MPS 55884
2002 04 15.17323 12 22 41.26 -05 52 02.6 19.9   644 – Palomar Mountain/NEAT MPS 55884
2002 04 15.19613 12 22 39.89 -05 51 56.1 20.2   644 – Palomar Mountain/NEAT MPS 55884
2002 04 16.24906 12 21 37.45 -05 47 03.2 19.2   704 – Lincoln Laboratory ETS, New Mexico MPS 55884
2002 04 16.26316 12 21 36.58 -05 46 59.6 19.3   704 – Lincoln Laboratory ETS, New Mexico MPS 55884
2002 04 16.27720 12 21 35.71 -05 46 56.4 19.5   704 – Lincoln Laboratory ETS, New Mexico MPS 55884
2002 04 16.29124 12 21 34.87 -05 46 52.8 19.0   704 – Lincoln Laboratory ETS, New Mexico MPS 55884
2002 04 16.30528 12 21 33.99 -05 46 47.5 19.4   704 – Lincoln Laboratory ETS, New Mexico MPS 55884
2003 10 29.28920 03 40 00.34 +25 56 18.5 19.4 R 699 – Lowell Observatory-LONEOS MPS 91991
2003 10 29.30836 03 39 59.14 +25 56 15.9   699 – Lowell Observatory-LONEOS MPS 91991
2003 10 29.32753 03 39 57.83 +25 56 14.0   699 – Lowell Observatory-LONEOS MPS 91991
2003 10 29.34671 03 39 56.54 +25 56 12.4   699 – Lowell Observatory-LONEOS MPS 91991
2003 11 16.26841 03 18 32.86 +25 10 43.5 19.8 V 691 – Steward Observatory, Kitt Peak-Spacewatch MPS 91991
2003 11 16.30004 03 18 30.46 +25 10 36.2 19.8 V 691 – Steward Observatory, Kitt Peak-Spacewatch MPS 91991
2003 11 16.32763 03 18 28.34 +25 10 30.0 19.7 V 691 – Steward Observatory, Kitt Peak-Spacewatch MPS 91991
2003 11 20.26978 03 13 42.35 +24 54 41.8 19.3   704 – Lincoln Laboratory ETS, New Mexico MPS 91991
2003 11 20.28223 03 13 41.46 +24 54 38.7 20.0   704 – Lincoln Laboratory ETS, New Mexico MPS 91991
2003 11 20.29466 03 13 40.54 +24 54 35.2 20.0   704 – Lincoln Laboratory ETS, New Mexico MPS 91991
2003 11 20.30718 03 13 39.59 +24 54 32.5 19.8   704 – Lincoln Laboratory ETS, New Mexico MPS 91991
2003 11 20.32002 03 13 38.65 +24 54 28.5 19.4   704 – Lincoln Laboratory ETS, New Mexico MPS 91991
2003 11 21.26391 03 12 32.02 +24 50 29.0 19.3   644 – Palomar Mountain/NEAT MPS 91991
2003 11 21.26985 03 12 31.57 +24 50 27.4 19.5   644 – Palomar Mountain/NEAT MPS 91991
2003 11 21.28847 03 12 30.24 +24 50 23.0 19.4   644 – Palomar Mountain/NEAT MPS 91991
2003 11 21.29896 03 12 29.47 +24 50 20.1 19.3   644 – Palomar Mountain/NEAT MPS 91991
2003 11 21.30958 03 12 28.68 +24 50 17.6 19.3   644 – Palomar Mountain/NEAT MPS 91991
2003 11 21.32076 03 12 27.89 +24 50 14.5 19.4   644 – Palomar Mountain/NEAT MPS 91991
2003 11 23.27096 03 10 12.51 +24 41 46.3 19.1 C 704 – Lincoln Laboratory ETS, New Mexico MPS 291189
2003 11 23.28350 03 10 11.65 +24 41 43.1 18.8 C 704 – Lincoln Laboratory ETS, New Mexico MPS 291189
2003 11 23.29601 03 10 10.85 +24 41 41.5 19.2 C 704 – Lincoln Laboratory ETS, New Mexico MPS 291189
2003 11 23.30861 03 10 09.87 +24 41 35.4 19.0 C 704 – Lincoln Laboratory ETS, New Mexico MPS 291189
2003 11 23.32119 03 10 09.03 +24 41 33.1 19.4 C 704 – Lincoln Laboratory ETS, New Mexico MPS 291189
2003 11 24.14694 03 09 13.45 +24 37 53.0 19.3 R 699 – Lowell Observatory-LONEOS MPS 91991
2003 11 24.16445 03 09 12.22 +24 37 48.4   699 – Lowell Observatory-LONEOS MPS 91991
2003 11 24.18201 03 09 11.01 +24 37 43.6   699 – Lowell Observatory-LONEOS MPS 91991
2003 11 24.19774 03 09 09.86 +24 37 42.2 19.5   704 – Lincoln Laboratory ETS, New Mexico MPS 91991
2003 11 24.19953 03 09 09.79 +24 37 40.1   699 – Lowell Observatory-LONEOS MPS 91991
2003 11 24.21012 03 09 08.91 +24 37 38.4 19.8   704 – Lincoln Laboratory ETS, New Mexico MPS 91991
2003 11 24.22254 03 09 08.05 +24 37 34.4 19.5   704 – Lincoln Laboratory ETS, New Mexico MPS 91991
2003 11 24.23503 03 09 07.28 +24 37 31.9 20.1   704 – Lincoln Laboratory ETS, New Mexico MPS 91991
2003 11 24.24740 03 09 06.36 +24 37 28.9 19.9   704 – Lincoln Laboratory ETS, New Mexico MPS 91992
2003 11 26.18554 03 06 58.39 +24 28 46.0 19.3   704 – Lincoln Laboratory ETS, New Mexico MPS 91992
2003 11 26.19821 03 06 57.63 +24 28 41.9 20.2   704 – Lincoln Laboratory ETS, New Mexico MPS 91992
2003 11 26.21107 03 06 56.77 +24 28 37.6 20.2   704 – Lincoln Laboratory ETS, New Mexico MPS 91992
2003 11 26.22384 03 06 55.82 +24 28 34.4 19.7   704 – Lincoln Laboratory ETS, New Mexico MPS 91992
2003 11 26.23655 03 06 54.97 +24 28 32.2 19.9   704 – Lincoln Laboratory ETS, New Mexico MPS 91992
